New York, NY

7:40 AM EST on November 19, 2019 (GMT -0500)
La Guardia

Weather History for KLGA - September, 2019

Change the Weather History Date:

Wednesday, September 18, 2019

  Actual Average Record
Temperature  
Mean Temperature 64 °F 68 °F  
Max Temperature 70 °F 76 °F 89 °F (1965)
Min Temperature 58 °F 61 °F 48 °F (1990)
Degree Days  
Heating Degree Days 1 1  
Month to date heating degree days 1 7  
Since 1 July heating degree days 1 8  
Cooling Degree Days 0 5  
Month to date cooling degree days 135 122  
Year to date cooling degree days 1364 1155  
Growing Degree Days 15 (Base 50)    
Moisture  
Dew Point 49 °F    
Average Humidity 60    
Maximum Humidity 78    
Minimum Humidity 42    
Precipitation  
Precipitation 0.00 in 0.13 in 1.99 in (2018)
Month to date precipitation 0.61 2.18  
Year to date precipitation 36.45 32.43  
Snow  
Snow 0.00 in 0.00 in - ()
Month to date snowfall 0.0 0.0  
Since 1 July snowfall 0.0 0.0  
Snow Depth 0.00 in    
Sea Level Pressure  
Sea Level Pressure 30.23 in    
Wind  
Wind Speed 12 mph (NE)    
Max Wind Speed 20 mph    
Max Gust Speed 33 mph    
Visibility 10 miles    
Events      
T = Trace of Precipitation, MM = Missing Value Source: NWS Daily Summary

Daily Weather History Graph

Daily Weather History Graph

Search for Another Location

Airport or City:

Astronomy

Sep. 18, 2019 Rise Set
Actual Time 6:38 AM EDT 6:59 PM EDT
Civil Twilight 6:11 AM EDT 7:27 PM EDT
Nautical Twilight 5:39 AM EDT 7:59 PM EDT
Astronomical Twilight 5:06 AM EDT 8:32 PM EDT
Moon 9:31 PM EDT (9/18) 10:40 AM EDT (9/18)
Length of Visible Light 13h 15m
Length of Day
12h 21m
Waning Gibbous, 82% of the Moon is Illuminated
Sep 18
Waning Gibbous
Sep 21
Last Quarter
Sep 28
New
Oct 5
First Quarter
Oct 13
Full

Hourly Weather History & Observations

Time (EDT) Temp. Dew Point Humidity Pressure Visibility Wind Dir Wind Speed Gust Speed Precip Events Conditions
12:51 AM 64.9 °F 52.0 °F 63% 30.15 in 10.0 mi East 5.8 mph - N/A   Clear
1:51 AM 64.9 °F 53.1 °F 65% 30.16 in 10.0 mi ENE 6.9 mph - N/A   Clear
2:51 AM 63.0 °F 53.1 °F 70% 30.17 in 10.0 mi ENE 8.1 mph - N/A   Clear
3:51 AM 63.0 °F 55.9 °F 78% 30.17 in 10.0 mi NE 8.1 mph - N/A   Clear
4:41 AM 62.1 °F 55.0 °F 78% 30.17 in 10.0 mi NNE 8.1 mph - N/A   Mostly Cloudy
4:51 AM 62.1 °F 55.0 °F 78% 30.17 in 10.0 mi NNE 8.1 mph - N/A   Mostly Cloudy
5:41 AM 61.0 °F 53.1 °F 75% 30.18 in 10.0 mi NNE 9.2 mph - N/A   Mostly Cloudy
5:51 AM 61.0 °F 53.1 °F 75% 30.19 in 10.0 mi NNE 8.1 mph - N/A   Mostly Cloudy
6:28 AM 60.1 °F 51.1 °F 72% 30.20 in 10.0 mi NNE 6.9 mph - N/A   Mostly Cloudy
6:47 AM 60.8 °F 51.8 °F 72% 30.20 in 10.0 mi NNE 8.1 mph - N/A   Mostly Cloudy
6:51 AM 60.1 °F 51.1 °F 72% 30.21 in 10.0 mi NNE 8.1 mph - N/A   Mostly Cloudy
7:51 AM 61.0 °F 50.0 °F 67% 30.23 in 10.0 mi NNE 10.4 mph - N/A   Scattered Clouds
8:51 AM 64.0 °F 51.1 °F 63% 30.24 in 10.0 mi NNE 12.7 mph - N/A   Mostly Cloudy
9:51 AM 66.0 °F 51.1 °F 59% 30.25 in 10.0 mi NE 15.0 mph - N/A   Partly Cloudy
10:51 AM 66.0 °F 52.0 °F 60% 30.25 in 10.0 mi NE 16.1 mph - N/A   Scattered Clouds
11:51 AM 66.0 °F 50.0 °F 56% 30.25 in 10.0 mi NE 15.0 mph - N/A   Scattered Clouds
12:51 PM 66.9 °F 48.0 °F 51% 30.24 in 10.0 mi ENE 13.8 mph - N/A   Scattered Clouds
1:51 PM 68.0 °F 46.9 °F 47% 30.24 in 10.0 mi ENE 12.7 mph - N/A   Mostly Cloudy
2:51 PM 68.0 °F 48.0 °F 49% 30.24 in 10.0 mi NE 15.0 mph - N/A   Scattered Clouds
3:51 PM 68.0 °F 46.0 °F 45% 30.25 in 10.0 mi ENE 11.5 mph - N/A   Scattered Clouds
4:51 PM 68.0 °F 45.0 °F 43% 30.24 in 10.0 mi ENE 12.7 mph - N/A   Partly Cloudy
5:51 PM 68.0 °F 44.1 °F 42% 30.25 in 10.0 mi East 13.8 mph - N/A   Partly Cloudy
6:51 PM 64.9 °F 43.0 °F 45% 30.25 in 10.0 mi East 12.7 mph - N/A   Partly Cloudy
7:51 PM 64.0 °F 44.1 °F 48% 30.26 in 10.0 mi East 11.5 mph - N/A   Clear
8:51 PM 64.0 °F 43.0 °F 46% 30.28 in 10.0 mi East 15.0 mph - N/A   Partly Cloudy
9:51 PM 63.0 °F 43.0 °F 48% 30.30 in 10.0 mi East 9.2 mph - N/A   Partly Cloudy
10:51 PM 62.1 °F 43.0 °F 50% 30.30 in 10.0 mi East 12.7 mph - N/A   Partly Cloudy
11:51 PM 59.0 °F 42.1 °F 53% 30.31 in 10.0 mi East 10.4 mph - N/A   Clear